Davenport, IA

3:05 PM CDT on September 25, 2017 (GMT -0500)
Davenport Municipal

Weather History for KDVN - June, 2013

Change the Weather History Date:

Monday, June 10, 2013

  Actual Average Record
Temperature  
Mean Temperature 67 °F 69 °F  
Max Temperature 77 °F 80 °F 95 °F (1968)
Min Temperature 56 °F 58 °F 44 °F (1977)
Degree Days  
Heating Degree Days 0 1  
Month to date heating degree days 24 15  
Since 1 June heating degree days 24 15  
Since 1 July heating degree days 6567 6502  
Cooling Degree Days 2 5  
Month to date cooling degree days 8 44  
Year to date cooling degree days 103 105  
Since 1 June cooling degree days 8 44  
Growing Degree Days 17 (Base 50)    
Moisture  
Dew Point 59 °F    
Average Humidity 77    
Maximum Humidity 100    
Minimum Humidity 54    
Precipitation  
Precipitation 0.00 in 0.16 in 1.54 in (1979)
Month to date precipitation 0.44 1.90  
Year to date precipitation 21.41 14.71  
Snow  
Snow 0.00 in - - ()
Month to date snowfall 0.0  
Since 1 June snowfall 0.0  
Since 1 July snowfall 27.1  
Snow Depth 0.00 in    
Sea Level Pressure  
Sea Level Pressure 29.83 in    
Wind  
Wind Speed 4 mph (NW)    
Max Wind Speed 16 mph    
Max Gust Speed 25 mph    
Visibility 5 miles    
Events Fog    
T = Trace of Precipitation, MM = Missing Value Source: NWS Daily Summary

Daily Weather History Graph

Daily Weather History Graph

Search for Another Location

Airport or City:

Trip Planner

Search our weather history database for the weather conditions in past years. The results will help you decide how hot, cold, wet, or windy it might be!

Date:

Astronomy

Jun. 10, 2013 Rise Set
Actual Time 5:27 AM CDT 8:36 PM CDT
Civil Twilight 4:53 AM CDT 9:10 PM CDT
Nautical Twilight 4:10 AM CDT 9:53 PM CDT
Astronomical Twilight 3:18 AM CDT 10:45 PM CDT
Moon 7:17 AM CDT (6/10) 10:01 PM CDT (6/10)
Length of Visible Light 16h 16m
Length of Day
15h 08m
Waxing Crescent, 4% of the Moon is Illuminated
Jun 10
Waxing Crescent
Jun 16
First Quarter
Jun 23
Full
Jun 29
Last Quarter
Jul 8
New

Hourly Weather History & Observations

Time (CDT) Temp. Dew Point Humidity Pressure Visibility Wind Dir Wind Speed Gust Speed Precip Events Conditions
12:14 AM 62.6 °F 60.8 °F 94% 29.80 in 3.0 mi SE 5.8 mph - N/A   Mostly Cloudy
12:52 AM 61.0 °F 60.1 °F 97% 29.77 in 4.0 mi SE 4.6 mph - N/A   Clear
1:16 AM 59.0 °F 57.2 °F 94% 29.79 in 2.0 mi ESE 4.6 mph - 0.01 in   Clear
1:36 AM 59.0 °F 57.2 °F 94% 29.77 in 1.5 mi SE 4.6 mph - 0.01 in   Clear
1:52 AM 59.0 °F 57.9 °F 96% 29.78 in 1.0 mi East 3.5 mph - 0.01 in   Clear
1:58 AM 59.0 °F 57.2 °F 94% 29.78 in 0.2 mi Calm Calm - N/A Fog Fog
2:05 AM 59.0 °F 57.2 °F 94% 29.78 in 0.2 mi Calm Calm - N/A Fog Fog
2:17 AM 57.2 °F 57.2 °F 100% 29.77 in 0.2 mi NE 3.5 mph - N/A Fog Fog
2:52 AM 59.0 °F 57.9 °F 96% 29.76 in 0.2 mi ENE 3.5 mph - N/A Fog Fog
3:15 AM 59.0 °F 57.2 °F 94% 29.77 in 0.2 mi Calm Calm - N/A Fog Fog
3:52 AM 57.0 °F 55.9 °F 96% 29.75 in 0.2 mi Calm Calm - N/A Fog Fog
4:52 AM 57.0 °F 55.9 °F 96% 29.77 in 0.2 mi Calm Calm - N/A Fog Fog
5:52 AM 57.0 °F 55.9 °F 96% 29.78 in 0.2 mi Calm Calm - N/A Fog Fog
6:52 AM 57.9 °F 57.0 °F 97% 29.80 in 0.2 mi West 3.5 mph - N/A Fog Fog
7:52 AM 57.9 °F 57.0 °F 97% 29.82 in 0.2 mi NW 6.9 mph - N/A Fog Fog
8:40 AM 60.8 °F 60.8 °F 100% 29.84 in 1.0 mi Calm Calm - N/A   Overcast
8:52 AM 61.0 °F 60.1 °F 97% 29.83 in 2.0 mi WNW 3.5 mph - N/A   Overcast
9:05 AM 62.6 °F 60.8 °F 94% 29.84 in 3.0 mi NNW 3.5 mph - N/A   Overcast
9:52 AM 64.9 °F 60.1 °F 84% 29.84 in 4.0 mi NNW 3.5 mph - N/A   Haze
10:52 AM 64.9 °F 60.1 °F 84% 29.86 in 5.0 mi Calm Calm - N/A   Haze
11:37 AM 66.2 °F 60.8 °F 83% 29.86 in 7.0 mi West 6.9 mph - N/A   Overcast
11:52 AM 66.9 °F 61.0 °F 81% 29.86 in 7.0 mi West 5.8 mph - N/A   Overcast
12:36 PM 66.2 °F 60.8 °F 83% 29.87 in 6.0 mi West 8.1 mph - N/A   Haze
12:52 PM 66.9 °F 61.0 °F 81% 29.86 in 7.0 mi NW 5.8 mph - N/A   Overcast
1:52 PM 72.0 °F 61.0 °F 68% 29.85 in 6.0 mi WNW 5.8 mph - N/A   Haze
2:14 PM 73.4 °F 62.6 °F 69% 29.86 in 10.0 mi NW 5.8 mph - N/A   Scattered Clouds
2:26 PM 73.4 °F 62.6 °F 69% 29.86 in 10.0 mi NW 10.4 mph 20.7 mph N/A   Mostly Cloudy
2:37 PM 73.4 °F 60.8 °F 65% 29.86 in 10.0 mi WNW 10.4 mph 16.1 mph N/A   Mostly Cloudy
2:52 PM 73.9 °F 62.1 °F 66% 29.86 in 10.0 mi NW 10.4 mph - N/A   Mostly Cloudy
3:52 PM 75.0 °F 60.1 °F 60% 29.85 in 10.0 mi WNW 12.7 mph - N/A   Scattered Clouds
4:52 PM 77.0 °F 60.1 °F 56% 29.85 in 10.0 mi WNW 15.0 mph - N/A   Scattered Clouds
5:52 PM 75.9 °F 57.9 °F 54% 29.85 in 10.0 mi West 8.1 mph 25.3 mph N/A   Partly Cloudy
6:52 PM 75.9 °F 59.0 °F 56% 29.85 in 10.0 mi WNW 8.1 mph - N/A   Clear
7:52 PM 73.9 °F 59.0 °F 59% 29.85 in 10.0 mi NNW 4.6 mph - N/A   Clear
8:52 PM 70.0 °F 61.0 °F 73% 29.86 in 9.0 mi Calm Calm - N/A   Clear
9:52 PM 66.0 °F 60.1 °F 81% 29.87 in 8.0 mi Calm Calm - N/A   Clear
10:52 PM 64.9 °F 60.1 °F 84% 29.88 in 8.0 mi Calm Calm - N/A   Clear
11:52 PM 63.0 °F 59.0 °F 87% 29.89 in 7.0 mi SW 3.5 mph - N/A   Clear